Location: The Saddle
(36.8333°N, 80.3417°W)
Time: 12:04:40
(UTC-04:00)

SR - Pass Details

Date: 25 May 2024
Orbit: 580 x 858 km, 66.7° (Epoch: 14 June)

Event Time Altitude Azimuth Distance (km) Brightness Sun altitude
Rises 04:22:30 0° 319° (NW) 2,818 ? -17.6°
Reaches altitude 10° 04:25:01 10° 306° (NW) 1,901 ? -17.3°
Enters shadow 04:27:39 24° 270° (W) 1,224 ? -16.9°
